Maria Desgagnes — VCWL — position and weather

sailwx.info

Track history (hours):
 
Tides and Currents Weather Stations Pressure Air Temp Water Temp Dewpoint Dewpoint Depression Visibility Wind Speed Wind Dir Waves Ship Positions

Maria Desgagnes

Last reported at 2014-Nov-24 19:00 UTC. Time now 2014-Nov-24 20:14 UTC.
Position N 46°48' W 071°12'.

Length 120 m; draft 7.3 m.

Type: Ship. MMSI: 316285000.

Wind from 050 at 5 knots

Barometer 995.7 mb
Air temperature 9.8 ° C
Dewpoint 9.7 ° C

Date/timePositionNaut miles runAvg speedWind from/ knotsBaromVisibWave heightAir tempDewpointWater temp
2014-Nov-24 19:00N 46°48' W 071°12'0 0.0 050 / 5995.7 9.8 9.7
2014-Nov-24 18:00N 46°48' W 071°12'0 0.0 060 / 5996.8 7.8 7.8
2014-Nov-24 17:00N 46°48' W 071°12'0 0.0 030 / 8998.4 9.6 9.5
2014-Nov-24 16:00N 46°48' W 071°12'0 0.0 060 / 81000.9 5.1 5.1
2014-Nov-24 15:00N 46°48' W 071°12'0 0.0 070 / 131002.8 4.0 4.0
2014-Nov-24 14:00N 46°48' W 071°12'0 0.0 070 / 171005.6 3.1 3.0
2014-Nov-24 13:00N 46°48' W 071°12'0 0.0 070 / 141007.6 3.4 3.4
2014-Nov-24 12:00N 46°48' W 071°12'0 0.0 080 / 151008.6 3.1 3.1
2014-Nov-24 11:00N 46°48' W 071°12'0 0.0 080 / 131010.0 2.9 2.9 3.0
2014-Nov-24 10:00N 46°48' W 071°12'0 0.0 080 / 141011.1 2.6 2.6 2.9
2014-Nov-24 09:00N 46°48' W 071°12'4 4.1 070 / 141012.5 2.7 2.7 2.8
2014-Nov-24 08:00N 46°48' W 071°06'1010.2 090 / 101015.0 2.8 2.8 2.7
2014-Nov-24 07:00N 46°54' W 070°54'1514.5 050 / 41016.1 2.7 2.6 2.8
2014-Nov-24 06:00N 47°06' W 070°42'7 7.3 040 / 31016.5 2.9 2.9 3.3
2014-Nov-24 05:00N 47°12' W 070°36'1312.7 010 / 21017.3 2.9 2.8 2.9
2014-Nov-24 04:00N 47°24' W 070°30'1010.1 340 / 31018.1 2.5 2.4 2.6
2014-Nov-24 03:00N 47°30' W 070°18'1010.1 300 / 51018.0 3.5 3.4 2.5
2014-Nov-24 02:00N 47°36' W 070°06'1414.5 240 / 121017.9 3.3 3.2 2.5
2014-Nov-24 01:00N 47°48' W 069°54'7 7.2 260 / 21018.2 2.2 1.8 2.3
2014-Nov-24 00:00N 47°54' W 069°48'1414.4 020 / 11017.5 1.6 1.4 2.2
2014-Nov-23 23:00N 48°06' W 069°36'1414.4 340 / 41017.5 1.7 0.9 2.1
2014-Nov-23 22:00N 48°18' W 069°24'1010.0 310 / 41017.8 1.7-0.7 2.3
2014-Nov-23 21:00N 48°24' W 069°12'1313.4 260 / 111016.2 1.9 0.3 2.4
2014-Nov-23 20:00N 48°30' W 068°54'1211.9 150 / 51016.2 1.5-0.0 1.9
2014-Nov-23 19:00N 48°30' W 068°36'4 4.0 110 / 11016.3 1.1-2.6 2.0
2014-Nov-23 18:00N 48°30' W 068°30'0 0.0 010 / 21015.5 1.4-2.3
2014-Nov-23 17:00N 48°30' W 068°30'0 0.0 010 / 81014.9 1.2-1.9
2014-Nov-23 16:00N 48°30' W 068°30'0 0.0 340 / 121014.8 1.7-1.8
2014-Nov-23 15:00N 48°30' W 068°30'0 0.0 320 / 131014.4 2.1-0.8
2014-Nov-23 14:00N 48°30' W 068°30'0 0.0 280 / 151013.6 2.6-1.2
2014-Nov-23 13:00N 48°30' W 068°30'0 0.0 280 / 151012.0 2.5 2.0
2014-Nov-23 12:00N 48°30' W 068°30'0 0.0 240 / 181010.4 2.6 1.4
2014-Nov-23 11:00N 48°30' W 068°30'0 0.0 230 / 191008.7 2.7 1.0
2014-Nov-23 10:00N 48°30' W 068°30'0 0.0 220 / 161007.6 2.1 0.7
2014-Nov-23 09:00N 48°30' W 068°30'0 0.0 230 / 211006.6 1.9 0.5
2014-Nov-23 08:00N 48°30' W 068°30'0 0.0 230 / 181006.2 1.8 0.2
2014-Nov-23 07:00N 48°30' W 068°30'0 0.0 220 / 191005.3 1.4-0.3
2014-Nov-23 06:00N 48°30' W 068°30'0 0.0 210 / 151005.3 1.1-0.8
2014-Nov-23 05:00N 48°30' W 068°30'0 0.0 210 / 131005.4 0.3-1.4
2014-Nov-23 04:00N 48°30' W 068°30'0 0.0 190 / 131005.5 -0.1-1.7
2014-Nov-23 03:00N 48°30' W 068°30'0 0.0 200 / 121005.6 -0.2-1.8
2014-Nov-23 02:00N 48°30' W 068°30'0 0.0 200 / 141005.4 -0.7-2.0
2014-Nov-23 01:00N 48°30' W 068°30'0 0.0 200 / 151005.4 -1.0-2.1
2014-Nov-23 00:00N 48°30' W 068°30'0 0.0 200 / 151005.2 -1.2-2.2
2014-Nov-22 23:00N 48°30' W 068°30'0 0.0 200 / 161005.5 -1.2-2.3
2014-Nov-22 22:00N 48°30' W 068°30'0 0.0 200 / 131006.0 -1.5-2.7
2014-Nov-22 21:00N 48°30' W 068°30'0 0.0 190 / 141006.0 -2.4-3.5
2014-Nov-22 20:00N 48°30' W 068°30'0 0.0 200 / 161006.5 -3.7-4.3
2014-Nov-22 18:00N 48°30' W 068°30'0 0.0 200 / 171008.0 -6.0-6.7
2014-Nov-22 17:00N 48°30' W 068°30'0 0.0 200 / 171009.1 -6.5-8.0
2014-Nov-22 16:00N 48°30' W 068°30'0 0.0 200 / 171011.2 -7.5-8.9
2014-Nov-22 15:00N 48°30' W 068°30'0 0.0 180 / 161013.5 -8.8-9.1
2014-Nov-22 14:00N 48°30' W 068°30'0 0.0 180 / 161015.4 -9.1-10.0
2014-Nov-22 13:00N 48°30' W 068°30'0 0.0 180 / 151016.9 -9.6-11.1
2014-Nov-22 12:00N 48°30' W 068°30'0 0.0 180 / 111018.1 -8.2-11.6
2014-Nov-22 11:00N 48°30' W 068°30'0 0.0 250 / 201018.4 -7.3-10.9
2014-Nov-22 10:00N 48°30' W 068°30'0 0.0 260 / 211018.8 -7.4-10.5
2014-Nov-22 09:00N 48°30' W 068°30'0 0.0 250 / 211018.9 -7.6-10.8
2014-Nov-22 08:00N 48°30' W 068°30'0 0.0 250 / 211019.4 -7.3-10.6
2014-Nov-22 07:00N 48°30' W 068°30'0 0.0 270 / 221019.4 -7.0-10.3
2014-Nov-22 06:00N 48°30' W 068°30'0 0.0 280 / 191019.2 -6.8-10.4
2014-Nov-22 05:00N 48°30' W 068°30'0 0.0 280 / 201019.3 -6.9-10.9
2014-Nov-22 04:00N 48°30' W 068°30'0 0.0 290 / 221019.0 -6.7-10.6
2014-Nov-22 03:00N 48°30' W 068°30'0 0.0 280 / 171019.4 -6.8-10.7
2014-Nov-22 02:00N 48°30' W 068°30'0 0.0 280 / 181019.1 -6.5-10.4
2014-Nov-22 01:00N 48°30' W 068°30'0 0.0 290 / 191018.5 -6.3-10.3
2014-Nov-22 00:00N 48°30' W 068°30'0 0.0 290 / 191017.8 -5.8-9.7
2014-Nov-21 23:00N 48°30' W 068°30'0 0.0 290 / 191016.6 -5.2-9.2
2014-Nov-21 22:00N 48°30' W 068°30'0 0.0 280 / 191015.2 -4.4-9.2
2014-Nov-21 20:00N 48°30' W 068°30'0 0.0 280 / 191013.0 -4.0-9.2
2014-Nov-21 19:00N 48°30' W 068°30'0 0.0 290 / 191011.9 -4.1-9.4
2014-Nov-21 18:00N 48°30' W 068°30'0 0.0 290 / 191011.6 -4.3-9.1
2014-Nov-21 17:00N 48°30' W 068°30'0 0.0 300 / 171010.8 -4.3-8.3
2014-Nov-21 16:00N 48°30' W 068°30'0 0.0 320 / 201010.4 -4.3-7.8
2014-Nov-21 15:00N 48°30' W 068°30'0 0.0 320 / 211009.7 -4.7-7.3
2014-Nov-21 14:00N 48°30' W 068°30'0 0.0 310 / 231008.3 -4.8-7.3
2014-Nov-21 13:00N 48°30' W 068°30'0 0.0 320 / 201007.5 -4.3-6.6
2014-Nov-21 12:00N 48°30' W 068°30'0 0.0 320 / 181006.5 -4.2-5.7
2014-Nov-21 11:00N 48°30' W 068°30'0 0.0 320 / 151005.6 -3.9-4.5
2014-Nov-21 10:00N 48°30' W 068°30'0 0.0 300 / 131004.4 -3.1-4.4
2014-Nov-21 09:00N 48°30' W 068°30'0 0.0 250 / 151003.8 -2.2-4.9
2014-Nov-21 08:00N 48°30' W 068°30'0 0.0 200 / 121003.3 -3.5-4.8
2014-Nov-21 07:00N 48°30' W 068°30'0 0.0 200 / 91003.4 -3.6-4.8
2014-Nov-21 06:00N 48°30' W 068°30'0 0.0 180 / 91003.4 -4.2-4.4
2014-Nov-21 05:00N 48°30' W 068°30'0 0.0 180 / 121003.0 -3.7-5.4
2014-Nov-21 04:00N 48°30' W 068°30'0 0.0 200 / 151003.0 -3.1-5.1
2014-Nov-21 03:00N 48°30' W 068°30'0 0.0 200 / 121003.4 -2.9-5.0
2014-Nov-21 02:00N 48°30' W 068°30'0 0.0 180 / 131003.8 -3.0-5.3
2014-Nov-21 01:00N 48°30' W 068°30'0 0.0 180 / 101004.2 -3.5-4.3
2014-Nov-21 00:00N 48°30' W 068°30'0 0.0 190 / 121003.9 -2.9-4.9
2014-Nov-20 23:00N 48°30' W 068°30'0 0.0 170 / 111003.8 -2.2-6.3
2014-Nov-20 22:00N 48°30' W 068°30'0 0.0 170 / 111003.9 -2.0-5.8
2014-Nov-20 21:00N 48°30' W 068°30'0 0.0 190 / 121003.7 -1.9-5.6
2014-Nov-20 20:00N 48°30' W 068°30'0 0.0 180 / 91004.1 -2.0-6.0
2014-Nov-20 19:00N 48°30' W 068°30'0 0.0 180 / 71004.5 -2.5-6.4 2.6
2014-Nov-20 18:00N 48°30' W 068°30'0 0.0 150 / 81004.6 -3.0-6.9 2.3
2014-Nov-20 17:00N 48°30' W 068°30'4 4.0 170 / 121005.8 -3.1-6.2 1.9
2014-Nov-20 16:00N 48°30' W 068°36'0 0.0 180 / 161007.3 -3.1-5.9
2014-Nov-20 15:00N 48°30' W 068°36'0 0.0 170 / 111008.7 -4.1-6.1 2.3
2014-Nov-20 14:00N 48°30' W 068°36'0 0.0 160 / 131009.6 -4.6-6.3 2.1
2014-Nov-20 13:00N 48°30' W 068°36'0 0.0 140 / 91010.9 -5.5-6.2 2.2
2014-Nov-20 12:00N 48°30' W 068°36'1313.4 170 / 201011.1 -5.0-5.2 2.3
2014-Nov-20 11:00N 48°24' W 068°54'1717.0 180 / 151011.4 -4.1-4.8 2.4
2014-Nov-20 10:00N 48°18' W 069°18'1010.0 200 / 81011.8 -5.4-5.6 2.6
2014-Nov-20 09:00N 48°12' W 069°30'2019.7 180 / 111012.1 -3.5-5.6 2.5
2014-Nov-20 08:00N 47°54' W 069°42'1414.5 200 / 131012.8 -3.3-5.7 2.6
2014-Nov-20 07:00N 47°42' W 069°54'1414.5 190 / 161013.4 -3.8-6.2 2.8
2014-Nov-20 06:00N 47°30' W 070°06'1413.6 190 / 141013.8 -3.0-5.5 2.9
2014-Nov-20 05:00N 47°24' W 070°24'1414.5 260 / 61014.6 -6.2-7.3 3.2
2014-Nov-20 04:00N 47°12' W 070°36'1514.5 220 / 141015.3 -3.6-5.4 3.6
2014-Nov-20 03:00N 47°00' W 070°48'1717.2 230 / 81015.8 -5.7-7.9 4.7
2014-Nov-20 02:00N 46°48' W 071°06'4 4.1 200 / 51015.5 -6.3-8.6 4.5
2014-Nov-20 01:00N 46°48' W 071°12'0 0.0 210 / 51015.9 -5.3-8.1
2014-Nov-20 00:00N 46°48' W 071°12'0 0.0 200 / 31015.9 -5.1-8.4
2014-Nov-19 23:00N 46°48' W 071°12'0 0.0 210 / 71015.5 -4.3-8.4
2014-Nov-19 22:00N 46°48' W 071°12'0 0.0 220 / 61015.1 -3.8-8.0
2014-Nov-19 21:00N 46°48' W 071°12'0 0.0 240 / 171014.1 -2.9-7.0
2014-Nov-19 20:00N 46°48' W 071°12'0 0.0 250 / 211013.8 -3.3-6.9
2014-Nov-19 19:00N 46°48' W 071°12'0 0.0 250 / 211013.8 -3.4-7.7
2014-Nov-19 18:00N 46°48' W 071°12'0 0.0 250 / 251013.8 -3.9-8.0
2014-Nov-19 17:00N 46°48' W 071°12'0 0.0 250 / 221013.9 -4.6-8.5
2014-Nov-19 16:00N 46°48' W 071°12'0 0.0 250 / 211013.1 -4.5-7.5
2014-Nov-19 15:00N 46°48' W 071°12'0 0.0 260 / 231012.5 -4.8-8.1
2014-Nov-19 14:00N 46°48' W 071°12'0 0.0 250 / 221011.4 -4.7-7.5
2014-Nov-19 13:00N 46°48' W 071°12'0 0.0 260 / 221010.1 -4.2-7.1
2014-Nov-19 12:00N 46°48' W 071°12'0 0.0 250 / 241008.3 -4.4-6.2
2014-Nov-19 11:00N 46°48' W 071°12'0 0.0 250 / 201007.0 -4.3-5.7
2014-Nov-19 10:00N 46°48' W 071°12'0 0.0 260 / 181005.7 -4.1-5.3
2014-Nov-19 09:00N 46°48' W 071°12'0 0.0 260 / 201003.8 -3.8-4.8
2014-Nov-19 08:00N 46°48' W 071°12'0 0.0 260 / 241002.5 -3.6-3.9
2014-Nov-19 07:00N 46°48' W 071°12'0 0.0 250 / 221001.5 -3.0-4.1
2014-Nov-19 06:00N 46°48' W 071°12'0 0.0 240 / 251000.4 -3.8-4.4
2014-Nov-19 05:00N 46°48' W 071°12'0 0.0 230 / 211000.4 -3.3-6.6
2014-Nov-19 04:00N 46°48' W 071°12'0 0.0 240 / 28999.8 -3.0-7.0 4.7
2014-Nov-19 03:00N 46°48' W 071°12'0 0.0 240 / 28999.6 -2.8-7.2 4.9
2014-Nov-19 02:00N 46°48' W 071°12'0 0.0 240 / 30998.8 -2.8-6.3 5.0
2014-Nov-19 01:00N 46°48' W 071°12'0 0.0 230 / 20999.8 -3.2-7.2
2014-Nov-19 00:00N 46°48' W 071°12'0 0.0 230 / 16999.3 -3.1-7.1
2014-Nov-18 23:00N 46°48' W 071°12'0 0.0 240 / 17999.0 -3.3-7.9
2014-Nov-18 22:00N 46°48' W 071°12'0 0.0 230 / 16998.3 -3.5-7.1
2014-Nov-18 21:00N 46°48' W 071°12'0 0.0 240 / 20997.7 -3.5-6.9
2014-Nov-18 20:00N 46°48' W 071°12'0 0.0 240 / 22997.1 -3.0-7.1
2014-Nov-18 19:00N 46°48' W 071°12'0 0.0 240 / 19996.4 -2.4-6.4
2014-Nov-18 18:00N 46°48' W 071°12'0 0.0 230 / 20996.2 -2.5-5.9
2014-Nov-18 17:00N 46°48' W 071°12'0 0.0 230 / 21995.5 -2.3-5.7
2014-Nov-18 16:00N 46°48' W 071°12'0 0.0 230 / 21995.1 -1.9-4.3
2014-Nov-18 15:00N 46°48' W 071°12'0 0.0 240 / 21995.0 -1.8-3.4
2014-Nov-18 14:00N 46°48' W 071°12'0 0.0 230 / 20994.2 -1.5-2.2
2014-Nov-18 13:00N 46°48' W 071°12'0 0.0 230 / 23993.9 -0.6-2.8
2014-Nov-18 12:00N 46°48' W 071°12'0 0.0 230 / 21993.0 0.5-0.5
2014-Nov-18 11:00N 46°48' W 071°12'0 0.0 230 / 16992.3 1.9 1.8
2014-Nov-18 10:00N 46°48' W 071°12'0 0.0 230 / 11992.6 1.8 1.8
2014-Nov-18 09:00N 46°48' W 071°12'0 0.0 230 / 14992.8 1.9 1.8
2014-Nov-18 08:00N 46°48' W 071°12'0 0.0 230 / 12993.5 1.5 1.5
2014-Nov-18 07:00N 46°48' W 071°12'0 0.0 200 / 3994.2 0.9 0.9
2014-Nov-18 06:00N 46°48' W 071°12'0 0.0 190 / 2994.3 0.7 0.7
2014-Nov-18 05:00N 46°48' W 071°12'0 0.0 040 / 8994.4 0.3 0.3
2014-Nov-18 04:00N 46°48' W 071°12'0 0.0 050 / 11995.2 0.6 0.5
2014-Nov-18 03:00N 46°48' W 071°12'0 0.0 060 / 13996.0 0.4 0.4
2014-Nov-18 02:00N 46°48' W 071°12'0 0.0 050 / 14997.4 0.4 0.4
2014-Nov-18 01:00N 46°48' W 071°12'0 0.0 050 / 17998.1 0.3 0.3
2014-Nov-18 00:00N 46°48' W 071°12'0 0.0 050 / 17999.0 0.3 0.3
2014-Nov-17 23:00N 46°48' W 071°12'0 0.0 050 / 171001.3 0.2 0.2 5.8
2014-Nov-17 22:00N 46°48' W 071°12'0 0.0 050 / 191002.2 0.3 0.3 5.8
2014-Nov-17 21:00N 46°48' W 071°12'0 0.0 050 / 211003.0 0.4 0.3 5.7
2014-Nov-17 20:00N 46°48' W 071°12'1010.2 080 / 171005.2 0.5 0.4 5.8
2014-Nov-17 19:00N 46°42' W 071°24'4 4.1 080 / 181006.3 0.6 0.6 5.7
2014-Nov-17 18:00N 46°42' W 071°30'1413.7 080 / 191007.9 0.4 0.4 5.8
2014-Nov-17 17:00N 46°36' W 071°48'1212.4 080 / 141009.8 0.4 0.3 5.8
2014-Nov-17 16:00N 46°36' W 072°06'716.1 100 / 121010.7 0.6 0.5 6.2
2014-Nov-17 15:33N 46°31' W 072°13'1018.2
2014-Nov-17 15:00N 46°24' W 072°24'4 9.0 110 / 101011.7 0.5 0.4 6.1
2014-Nov-17 14:33N 46°22' W 072°29'4 7.5
2014-Nov-17 14:00N 46°18' W 072°30'3 6.1 100 / 41013.0 -0.2-0.3
2014-Nov-17 13:32N 46°20' W 072°33'3 5.0
2014-Nov-17 13:00N 46°18' W 072°30'3 6.1 110 / 41013.8 -0.4-0.5
2014-Nov-17 12:32N 46°20' W 072°33'3 5.0
2014-Nov-17 12:00N 46°18' W 072°30'3 6.1 130 / 61014.6 -0.3-0.5
2014-Nov-17 11:32N 46°20' W 072°33'3 5.0
2014-Nov-17 11:00N 46°18' W 072°30'3 6.1 160 / 71015.5 0.3 0.2
2014-Nov-17 10:32N 46°20' W 072°33'3 5.0
2014-Nov-17 10:00N 46°18' W 072°30'3 6.1 160 / 71015.7 0.2 0.1
2014-Nov-17 09:32N 46°20' W 072°33'0 0.0
2014-Nov-17 08:32N 46°20' W 072°33'3 5.0
2014-Nov-17 08:00N 46°18' W 072°30'3 6.1 190 / 51016.2 0.4 0.3
2014-Nov-17 07:32N 46°20' W 072°33'3 5.0
2014-Nov-17 07:00N 46°18' W 072°30'3 6.1 190 / 91016.4 0.6 0.5
2014-Nov-17 06:32N 46°20' W 072°33'3 5.0
2014-Nov-17 06:00N 46°18' W 072°30'3 6.1 200 / 61016.6 0.4 0.3
2014-Nov-17 05:32N 46°20' W 072°33'3 5.0
2014-Nov-17 05:00N 46°18' W 072°30'3 6.1 200 / 81017.0 0.6 0.5
2014-Nov-17 04:32N 46°20' W 072°33'3 5.0
2014-Nov-17 04:00N 46°18' W 072°30'3 6.1 220 / 71017.1 0.7 0.6
2014-Nov-17 03:32N 46°20' W 072°33'3 5.0
2014-Nov-17 03:00N 46°18' W 072°30'3 6.1 200 / 71017.4 0.7 0.6
2014-Nov-17 02:32N 46°20' W 072°33'3 5.0
2014-Nov-17 02:00N 46°18' W 072°30'3 6.1 220 / 51017.9 0.8 0.7
2014-Nov-17 01:32N 46°20' W 072°33'3 5.0
2014-Nov-17 01:00N 46°18' W 072°30'3 6.1 220 / 51018.0 0.8 0.7
2014-Nov-17 00:32N 46°20' W 072°33'3 5.0
2014-Nov-17 00:00N 46°18' W 072°30'3 5.0 230 / 41018.1 1.2 1.0
2014-Nov-16 23:26N 46°20' W 072°33'3 6.2
2014-Nov-16 23:00N 46°18' W 072°30'3 6.1 240 / 51018.1 1.2 1.0
2014-Nov-16 22:32N 46°20' W 072°33'3 5.0
2014-Nov-16 22:00N 46°18' W 072°30'3 5.0 180 / 41018.0 0.6 0.5
2014-Nov-16 21:26N 46°20' W 072°33'3 6.1
2014-Nov-16 21:00N 46°18' W 072°30'3 6.1 210 / 31018.8 0.8 0.7
2014-Nov-16 20:32N 46°20' W 072°33'3 5.0
2014-Nov-16 20:00N 46°18' W 072°30'3 6.1 220 / 41018.6 0.8 0.7
2014-Nov-16 19:32N 46°20' W 072°33'3 5.0
2014-Nov-16 19:00N 46°18' W 072°30'3 5.0 210 / 71019.4 0.7 0.6
2014-Nov-16 18:26N 46°20' W 072°33'3 6.1
2014-Nov-16 18:00N 46°18' W 072°30'3 6.1 230 / 81019.6 0.4 0.3
2014-Nov-16 17:32N 46°20' W 072°33'3 5.0
2014-Nov-16 17:00N 46°18' W 072°30'3 6.1 230 / 51020.7 -0.0-0.1
2014-Nov-16 16:32N 46°20' W 072°33'3 5.0
2014-Nov-16 16:00N 46°18' W 072°30'3 6.1 220 / 61021.7 -0.4-0.5
2014-Nov-16 15:32N 46°20' W 072°33'3 5.0
2014-Nov-16 15:00N 46°18' W 072°30'3 6.1 240 / 81021.9 -0.6-0.8
2014-Nov-16 14:32N 46°20' W 072°33'3 5.0
2014-Nov-16 14:00N 46°18' W 072°30'3 6.1 240 / 101022.1 0.2-2.9
2014-Nov-16 13:32N 46°20' W 072°33'3 5.0
2014-Nov-16 13:00N 46°18' W 072°30'3 6.1 240 / 101022.1 -0.1-2.1
2014-Nov-16 12:32N 46°20' W 072°33'3 5.0
2014-Nov-16 12:00N 46°18' W 072°30'3 6.1 240 / 101021.6 -0.0-2.8
2014-Nov-16 11:32N 46°20' W 072°33'3 5.0
2014-Nov-16 11:00N 46°18' W 072°30'3 6.1 230 / 91021.6 0.1-2.2
2014-Nov-16 10:32N 46°20' W 072°33'3 5.0
2014-Nov-16 10:00N 46°18' W 072°30'3 6.1 220 / 61021.9 -0.5-2.2
2014-Nov-16 09:32N 46°20' W 072°33'3 5.0
2014-Nov-16 09:00N 46°18' W 072°30'3 6.1 210 / 61021.8 -0.6-2.5
2014-Nov-16 08:32N 46°20' W 072°33'3 5.0
2014-Nov-16 08:00N 46°18' W 072°30'3 5.0 230 / 61021.7 -0.6-3.1
2014-Nov-16 07:26N 46°20' W 072°33'3 6.1
2014-Nov-16 07:00N 46°18' W 072°30'3 6.1 230 / 81021.8 -1.0-4.0
2014-Nov-16 06:32N 46°20' W 072°33'3 5.0
2014-Nov-16 06:00N 46°18' W 072°30'3 6.1 230 / 61021.8 -1.0-4.2
2014-Nov-16 05:32N 46°20' W 072°33'3 5.0
2014-Nov-16 05:00N 46°18' W 072°30'3 6.1 210 / 81022.1 -0.8-4.2
2014-Nov-16 04:32N 46°20' W 072°33'3 5.0
2014-Nov-16 04:00N 46°18' W 072°30'3 6.1 200 / 71022.4 -1.2-4.0
2014-Nov-16 03:32N 46°20' W 072°33'3 5.0
2014-Nov-16 03:00N 46°18' W 072°30'3 6.1 200 / 61022.6 -1.6-4.7
2014-Nov-16 02:32N 46°20' W 072°33'3 5.0
2014-Nov-16 02:00N 46°18' W 072°30'3 6.1 190 / 61022.9 -1.3-5.5
2014-Nov-16 01:32N 46°20' W 072°33'3 5.0
2014-Nov-16 01:00N 46°18' W 072°30'3 6.1 260 / 41022.9 -1.0-7.1
2014-Nov-16 00:32N 46°20' W 072°33'3 5.0
2014-Nov-16 00:00N 46°18' W 072°30'3 6.1 250 / 51023.0 -0.9-7.2
2014-Nov-15 23:32N 46°20' W 072°33'3 5.0
2014-Nov-15 23:00N 46°18' W 072°30'3 6.1 280 / 41022.6 -0.4-7.0
2014-Nov-15 22:32N 46°20' W 072°33'3 5.0
2014-Nov-15 22:00N 46°18' W 072°30'3 6.1 260 / 81021.5 0.6-6.5
2014-Nov-15 21:32N 46°20' W 072°33'3 5.0
2014-Nov-15 21:00N 46°18' W 072°30'3 6.1 250 / 101021.2 1.2-6.1
2014-Nov-15 20:32N 46°20' W 072°33'3 5.0
2014-Nov-15 20:00N 46°18' W 072°30'3 6.1 240 / 121021.0 1.0-7.1
2014-Nov-15 19:32N 46°20' W 072°33'3 5.0
2014-Nov-15 19:00N 46°18' W 072°30'3 6.1 240 / 111021.3 0.2-6.0
2014-Nov-15 18:32N 46°20' W 072°33'3 5.0
2014-Nov-15 18:00N 46°18' W 072°30'0 0.0 230 / 71021.5 -0.3-5.9
2014-Nov-15 17:00N 46°18' W 072°30'0 0.0 240 / 81021.8 -0.8-6.6
2014-Nov-15 16:00N 46°18' W 072°30'3 6.1 260 / 91022.3 -1.4-7.1
2014-Nov-15 15:32N 46°20' W 072°33'3 5.0
2014-Nov-15 15:00N 46°18' W 072°30'3 6.1 290 / 81022.4 -1.9-7.4
2014-Nov-15 14:32N 46°20' W 072°33'3 5.0
2014-Nov-15 14:00N 46°18' W 072°30'3 6.1 250 / 111021.9 -2.2-6.8
2014-Nov-15 13:32N 46°20' W 072°33'3 5.0
2014-Nov-15 13:00N 46°18' W 072°30'3 6.1 260 / 91021.8 -3.7-6.7
2014-Nov-15 12:32N 46°20' W 072°33'3 5.0
2014-Nov-15 12:00N 46°18' W 072°30'3 6.1 260 / 71021.3 -4.6-7.6
2014-Nov-15 11:32N 46°20' W 072°33'3 5.0
2014-Nov-15 11:00N 46°18' W 072°30'3 6.1 270 / 51021.0 -5.1-8.2
2014-Nov-15 10:32N 46°20' W 072°33'3 5.0
2014-Nov-15 10:00N 46°18' W 072°30'3 6.1 270 / 71020.5 -5.0-8.3
2014-Nov-15 09:32N 46°20' W 072°33'3 5.0
2014-Nov-15 09:00N 46°18' W 072°30'3 6.1 290 / 51019.9 -5.0-8.1
2014-Nov-15 08:32N 46°20' W 072°33'3 5.0
2014-Nov-15 08:00N 46°18' W 072°30'3 6.1 300 / 81019.5 -4.7-7.6
2014-Nov-15 07:32N 46°20' W 072°33'3 5.0
2014-Nov-15 07:00N 46°18' W 072°30'3 6.1 300 / 71018.9 -4.1-7.2
2014-Nov-15 06:32N 46°20' W 072°33'3 5.0
2014-Nov-15 06:00N 46°18' W 072°30'3 6.1 300 / 91018.4 -3.7-6.8
2014-Nov-15 05:32N 46°20' W 072°33'3 5.0
2014-Nov-15 05:00N 46°18' W 072°30'3 6.1 300 / 81018.3 -3.3-6.6
2014-Nov-15 04:32N 46°20' W 072°33'3 5.0
2014-Nov-15 04:00N 46°18' W 072°30'3 5.0 290 / 41018.0 -3.1-6.3
2014-Nov-15 03:26N 46°20' W 072°33'3 6.1
2014-Nov-15 03:00N 46°18' W 072°30'3 6.1 300 / 61017.5 -2.4-6.8
2014-Nov-15 02:32N 46°20' W 072°33'3 5.0
2014-Nov-15 02:00N 46°18' W 072°30'3 6.1 300 / 61016.9 -2.0-6.6
2014-Nov-15 01:32N 46°20' W 072°33'3 5.0
2014-Nov-15 01:00N 46°18' W 072°30'3 6.1 300 / 61016.4 -1.4-6.6
2014-Nov-15 00:32N 46°20' W 072°33'3 5.0
2014-Nov-15 00:00N 46°18' W 072°30'3 6.1 300 / 81015.6 -0.7-6.7
2014-Nov-14 23:32N 46°20' W 072°33'3 5.0
2014-Nov-14 23:00N 46°18' W 072°30'3 6.1 280 / 51015.0 -0.5-5.5
2014-Nov-14 22:32N 46°20' W 072°33'3 5.0
2014-Nov-14 22:00N 46°18' W 072°30'3 6.1 270 / 51014.3 0.1-5.2
2014-Nov-14 21:32N 46°20' W 072°33'3 5.0
2014-Nov-14 21:00N 46°18' W 072°30'3 6.1 300 / 71013.7 1.0-6.0
2014-Nov-14 20:32N 46°20' W 072°33'3 5.0
2014-Nov-14 20:00N 46°18' W 072°30'3 6.1 280 / 101013.0 1.4-6.8
2014-Nov-14 19:32N 46°20' W 072°33'3 5.0
2014-Nov-14 19:00N 46°18' W 072°30'   310 / 101012.8 1.2-6.8
Track history (hours):
 
Tides and Currents Weather Stations Pressure Air Temp Water Temp Dewpoint Dewpoint Depression Visibility Wind Speed Wind Dir Waves Ship Positions

Maria Desgagnes

Last reported at 2014-Nov-24 19:00 UTC. Time now 2014-Nov-24 20:14 UTC.
Position N 46°48' W 071°12'.

Length 120 m; draft 7.3 m.

Type: Ship. MMSI: 316285000.

Wind from 050 at 5 knots

Barometer 995.7 mb
Air temperature 9.8 ° C
Dewpoint 9.7 ° C

Date/timePositionNaut miles runAvg speedWind from/ knotsBaromVisibWave heightAir tempDewpointWater temp
2014-Nov-24 19:00N 46°48' W 071°12'0 0.0 050 / 5995.7 9.8 9.7
2014-Nov-24 18:00N 46°48' W 071°12'0 0.0 060 / 5996.8 7.8 7.8
2014-Nov-24 17:00N 46°48' W 071°12'0 0.0 030 / 8998.4 9.6 9.5
2014-Nov-24 16:00N 46°48' W 071°12'0 0.0 060 / 81000.9 5.1 5.1
2014-Nov-24 15:00N 46°48' W 071°12'0 0.0 070 / 131002.8 4.0 4.0
2014-Nov-24 14:00N 46°48' W 071°12'0 0.0 070 / 171005.6 3.1 3.0
2014-Nov-24 13:00N 46°48' W 071°12'0 0.0 070 / 141007.6 3.4 3.4
2014-Nov-24 12:00N 46°48' W 071°12'0 0.0 080 / 151008.6 3.1 3.1
2014-Nov-24 11:00N 46°48' W 071°12'0 0.0 080 / 131010.0 2.9 2.9 3.0
2014-Nov-24 10:00N 46°48' W 071°12'0 0.0 080 / 141011.1 2.6 2.6 2.9
2014-Nov-24 09:00N 46°48' W 071°12'4 4.1 070 / 141012.5 2.7 2.7 2.8
2014-Nov-24 08:00N 46°48' W 071°06'1010.2 090 / 101015.0 2.8 2.8 2.7
2014-Nov-24 07:00N 46°54' W 070°54'1514.5 050 / 41016.1 2.7 2.6 2.8
2014-Nov-24 06:00N 47°06' W 070°42'7 7.3 040 / 31016.5 2.9 2.9 3.3
2014-Nov-24 05:00N 47°12' W 070°36'1312.7 010 / 21017.3 2.9 2.8 2.9
2014-Nov-24 04:00N 47°24' W 070°30'1010.1 340 / 31018.1 2.5 2.4 2.6
2014-Nov-24 03:00N 47°30' W 070°18'1010.1 300 / 51018.0 3.5 3.4 2.5
2014-Nov-24 02:00N 47°36' W 070°06'1414.5 240 / 121017.9 3.3 3.2 2.5
2014-Nov-24 01:00N 47°48' W 069°54'7 7.2 260 / 21018.2 2.2 1.8 2.3
2014-Nov-24 00:00N 47°54' W 069°48'1414.4 020 / 11017.5 1.6 1.4 2.2
2014-Nov-23 23:00N 48°06' W 069°36'1414.4 340 / 41017.5 1.7 0.9 2.1
2014-Nov-23 22:00N 48°18' W 069°24'1010.0 310 / 41017.8 1.7-0.7 2.3
2014-Nov-23 21:00N 48°24' W 069°12'1313.4 260 / 111016.2 1.9 0.3 2.4
2014-Nov-23 20:00N 48°30' W 068°54'1211.9 150 / 51016.2 1.5-0.0 1.9
2014-Nov-23 19:00N 48°30' W 068°36'4 4.0 110 / 11016.3 1.1-2.6 2.0
2014-Nov-23 18:00N 48°30' W 068°30'0 0.0 010 / 21015.5 1.4-2.3
2014-Nov-23 17:00N 48°30' W 068°30'0 0.0 010 / 81014.9 1.2-1.9
2014-Nov-23 16:00N 48°30' W 068°30'0 0.0 340 / 121014.8 1.7-1.8
2014-Nov-23 15:00N 48°30' W 068°30'0 0.0 320 / 131014.4 2.1-0.8
2014-Nov-23 14:00N 48°30' W 068°30'0 0.0 280 / 151013.6 2.6-1.2
2014-Nov-23 13:00N 48°30' W 068°30'0 0.0 280 / 151012.0 2.5 2.0
2014-Nov-23 12:00N 48°30' W 068°30'0 0.0 240 / 181010.4 2.6 1.4
2014-Nov-23 11:00N 48°30' W 068°30'0 0.0 230 / 191008.7 2.7 1.0
2014-Nov-23 10:00N 48°30' W 068°30'0 0.0 220 / 161007.6 2.1 0.7
2014-Nov-23 09:00N 48°30' W 068°30'0 0.0 230 / 211006.6 1.9 0.5
2014-Nov-23 08:00N 48°30' W 068°30'0 0.0 230 / 181006.2 1.8 0.2
2014-Nov-23 07:00N 48°30' W 068°30'0 0.0 220 / 191005.3 1.4-0.3
2014-Nov-23 06:00N 48°30' W 068°30'0 0.0 210 / 151005.3 1.1-0.8
2014-Nov-23 05:00N 48°30' W 068°30'0 0.0 210 / 131005.4 0.3-1.4
2014-Nov-23 04:00N 48°30' W 068°30'0 0.0 190 / 131005.5 -0.1-1.7
2014-Nov-23 03:00N 48°30' W 068°30'0 0.0 200 / 121005.6 -0.2-1.8
2014-Nov-23 02:00N 48°30' W 068°30'0 0.0 200 / 141005.4 -0.7-2.0
2014-Nov-23 01:00N 48°30' W 068°30'0 0.0 200 / 151005.4 -1.0-2.1
2014-Nov-23 00:00N 48°30' W 068°30'0 0.0 200 / 151005.2 -1.2-2.2
2014-Nov-22 23:00N 48°30' W 068°30'0 0.0 200 / 161005.5 -1.2-2.3
2014-Nov-22 22:00N 48°30' W 068°30'0 0.0 200 / 131006.0 -1.5-2.7
2014-Nov-22 21:00N 48°30' W 068°30'0 0.0 190 / 141006.0 -2.4-3.5
2014-Nov-22 20:00N 48°30' W 068°30'0 0.0 200 / 161006.5 -3.7-4.3
2014-Nov-22 18:00N 48°30' W 068°30'0 0.0 200 / 171008.0 -6.0-6.7
2014-Nov-22 17:00N 48°30' W 068°30'0 0.0 200 / 171009.1 -6.5-8.0
2014-Nov-22 16:00N 48°30' W 068°30'0 0.0 200 / 171011.2 -7.5-8.9
2014-Nov-22 15:00N 48°30' W 068°30'0 0.0 180 / 161013.5 -8.8-9.1
2014-Nov-22 14:00N 48°30' W 068°30'0 0.0 180 / 161015.4 -9.1-10.0
2014-Nov-22 13:00N 48°30' W 068°30'0 0.0 180 / 151016.9 -9.6-11.1
2014-Nov-22 12:00N 48°30' W 068°30'0 0.0 180 / 111018.1 -8.2-11.6
2014-Nov-22 11:00N 48°30' W 068°30'0 0.0 250 / 201018.4 -7.3-10.9
2014-Nov-22 10:00N 48°30' W 068°30'0 0.0 260 / 211018.8 -7.4-10.5
2014-Nov-22 09:00N 48°30' W 068°30'0 0.0 250 / 211018.9 -7.6-10.8
2014-Nov-22 08:00N 48°30' W 068°30'0 0.0 250 / 211019.4 -7.3-10.6
2014-Nov-22 07:00N 48°30' W 068°30'0 0.0 270 / 221019.4 -7.0-10.3
2014-Nov-22 06:00N 48°30' W 068°30'0 0.0 280 / 191019.2 -6.8-10.4
2014-Nov-22 05:00N 48°30' W 068°30'0 0.0 280 / 201019.3 -6.9-10.9
2014-Nov-22 04:00N 48°30' W 068°30'0 0.0 290 / 221019.0 -6.7-10.6
2014-Nov-22 03:00N 48°30' W 068°30'0 0.0 280 / 171019.4 -6.8-10.7
2014-Nov-22 02:00N 48°30' W 068°30'0 0.0 280 / 181019.1 -6.5-10.4
2014-Nov-22 01:00N 48°30' W 068°30'0 0.0 290 / 191018.5 -6.3-10.3
2014-Nov-22 00:00N 48°30' W 068°30'0 0.0 290 / 191017.8 -5.8-9.7
2014-Nov-21 23:00N 48°30' W 068°30'0 0.0 290 / 191016.6 -5.2-9.2
2014-Nov-21 22:00N 48°30' W 068°30'0 0.0 280 / 191015.2 -4.4-9.2
2014-Nov-21 20:00N 48°30' W 068°30'0 0.0 280 / 191013.0 -4.0-9.2
2014-Nov-21 19:00N 48°30' W 068°30'0 0.0 290 / 191011.9 -4.1-9.4
2014-Nov-21 18:00N 48°30' W 068°30'0 0.0 290 / 191011.6 -4.3-9.1
2014-Nov-21 17:00N 48°30' W 068°30'0 0.0 300 / 171010.8 -4.3-8.3
2014-Nov-21 16:00N 48°30' W 068°30'0 0.0 320 / 201010.4 -4.3-7.8
2014-Nov-21 15:00N 48°30' W 068°30'0 0.0 320 / 211009.7 -4.7-7.3
2014-Nov-21 14:00N 48°30' W 068°30'0 0.0 310 / 231008.3 -4.8-7.3
2014-Nov-21 13:00N 48°30' W 068°30'0 0.0 320 / 201007.5 -4.3-6.6
2014-Nov-21 12:00N 48°30' W 068°30'0 0.0 320 / 181006.5 -4.2-5.7
2014-Nov-21 11:00N 48°30' W 068°30'0 0.0 320 / 151005.6 -3.9-4.5
2014-Nov-21 10:00N 48°30' W 068°30'0 0.0 300 / 131004.4 -3.1-4.4
2014-Nov-21 09:00N 48°30' W 068°30'0 0.0 250 / 151003.8 -2.2-4.9
2014-Nov-21 08:00N 48°30' W 068°30'0 0.0 200 / 121003.3 -3.5-4.8
2014-Nov-21 07:00N 48°30' W 068°30'0 0.0 200 / 91003.4 -3.6-4.8
2014-Nov-21 06:00N 48°30' W 068°30'0 0.0 180 / 91003.4 -4.2-4.4
2014-Nov-21 05:00N 48°30' W 068°30'0 0.0 180 / 121003.0 -3.7-5.4
2014-Nov-21 04:00N 48°30' W 068°30'0 0.0 200 / 151003.0 -3.1-5.1
2014-Nov-21 03:00N 48°30' W 068°30'0 0.0 200 / 121003.4 -2.9-5.0
2014-Nov-21 02:00N 48°30' W 068°30'0 0.0 180 / 131003.8 -3.0-5.3
2014-Nov-21 01:00N 48°30' W 068°30'0 0.0 180 / 101004.2 -3.5-4.3
2014-Nov-21 00:00N 48°30' W 068°30'0 0.0 190 / 121003.9 -2.9-4.9
2014-Nov-20 23:00N 48°30' W 068°30'0 0.0 170 / 111003.8 -2.2-6.3
2014-Nov-20 22:00N 48°30' W 068°30'0 0.0 170 / 111003.9 -2.0-5.8
2014-Nov-20 21:00N 48°30' W 068°30'0 0.0 190 / 121003.7 -1.9-5.6
2014-Nov-20 20:00N 48°30' W 068°30'0 0.0 180 / 91004.1 -2.0-6.0
2014-Nov-20 19:00N 48°30' W 068°30'0 0.0 180 / 71004.5 -2.5-6.4 2.6
2014-Nov-20 18:00N 48°30' W 068°30'0 0.0 150 / 81004.6 -3.0-6.9 2.3
2014-Nov-20 17:00N 48°30' W 068°30'4 4.0 170 / 121005.8 -3.1-6.2 1.9
2014-Nov-20 16:00N 48°30' W 068°36'0 0.0 180 / 161007.3 -3.1-5.9
2014-Nov-20 15:00N 48°30' W 068°36'0 0.0 170 / 111008.7 -4.1-6.1 2.3
2014-Nov-20 14:00N 48°30' W 068°36'0 0.0 160 / 131009.6 -4.6-6.3 2.1
2014-Nov-20 13:00N 48°30' W 068°36'0 0.0 140 / 91010.9 -5.5-6.2 2.2
2014-Nov-20 12:00N 48°30' W 068°36'1313.4 170 / 201011.1 -5.0-5.2 2.3
2014-Nov-20 11:00N 48°24' W 068°54'1717.0 180 / 151011.4 -4.1-4.8 2.4
2014-Nov-20 10:00N 48°18' W 069°18'1010.0 200 / 81011.8 -5.4-5.6 2.6
2014-Nov-20 09:00N 48°12' W 069°30'2019.7 180 / 111012.1 -3.5-5.6 2.5
2014-Nov-20 08:00N 47°54' W 069°42'1414.5 200 / 131012.8 -3.3-5.7 2.6
2014-Nov-20 07:00N 47°42' W 069°54'1414.5 190 / 161013.4 -3.8-6.2 2.8
2014-Nov-20 06:00N 47°30' W 070°06'1413.6 190 / 141013.8 -3.0-5.5 2.9
2014-Nov-20 05:00N 47°24' W 070°24'1414.5 260 / 61014.6 -6.2-7.3 3.2
2014-Nov-20 04:00N 47°12' W 070°36'1514.5 220 / 141015.3 -3.6-5.4 3.6
2014-Nov-20 03:00N 47°00' W 070°48'1717.2 230 / 81015.8 -5.7-7.9 4.7
2014-Nov-20 02:00N 46°48' W 071°06'4 4.1 200 / 51015.5 -6.3-8.6 4.5
2014-Nov-20 01:00N 46°48' W 071°12'0 0.0 210 / 51015.9 -5.3-8.1
2014-Nov-20 00:00N 46°48' W 071°12'0 0.0 200 / 31015.9 -5.1-8.4
2014-Nov-19 23:00N 46°48' W 071°12'0 0.0 210 / 71015.5 -4.3-8.4
2014-Nov-19 22:00N 46°48' W 071°12'0 0.0 220 / 61015.1 -3.8-8.0
2014-Nov-19 21:00N 46°48' W 071°12'0 0.0 240 / 171014.1 -2.9-7.0
2014-Nov-19 20:00N 46°48' W 071°12'0 0.0 250 / 211013.8 -3.3-6.9
2014-Nov-19 19:00N 46°48' W 071°12'0 0.0 250 / 211013.8 -3.4-7.7
2014-Nov-19 18:00N 46°48' W 071°12'0 0.0 250 / 251013.8 -3.9-8.0
2014-Nov-19 17:00N 46°48' W 071°12'0 0.0 250 / 221013.9 -4.6-8.5
2014-Nov-19 16:00N 46°48' W 071°12'0 0.0 250 / 211013.1 -4.5-7.5
2014-Nov-19 15:00N 46°48' W 071°12'0 0.0 260 / 231012.5 -4.8-8.1
2014-Nov-19 14:00N 46°48' W 071°12'0 0.0 250 / 221011.4 -4.7-7.5
2014-Nov-19 13:00N 46°48' W 071°12'0 0.0 260 / 221010.1 -4.2-7.1
2014-Nov-19 12:00N 46°48' W 071°12'0 0.0 250 / 241008.3 -4.4-6.2
2014-Nov-19 11:00N 46°48' W 071°12'0 0.0 250 / 201007.0 -4.3-5.7
2014-Nov-19 10:00N 46°48' W 071°12'0 0.0 260 / 181005.7 -4.1-5.3
2014-Nov-19 09:00N 46°48' W 071°12'0 0.0 260 / 201003.8 -3.8-4.8
2014-Nov-19 08:00N 46°48' W 071°12'0 0.0 260 / 241002.5 -3.6-3.9
2014-Nov-19 07:00N 46°48' W 071°12'0 0.0 250 / 221001.5 -3.0-4.1
2014-Nov-19 06:00N 46°48' W 071°12'0 0.0 240 / 251000.4 -3.8-4.4
2014-Nov-19 05:00N 46°48' W 071°12'0 0.0 230 / 211000.4 -3.3-6.6
2014-Nov-19 04:00N 46°48' W 071°12'0 0.0 240 / 28999.8 -3.0-7.0 4.7
2014-Nov-19 03:00N 46°48' W 071°12'0 0.0 240 / 28999.6 -2.8-7.2 4.9
2014-Nov-19 02:00N 46°48' W 071°12'0 0.0 240 / 30998.8 -2.8-6.3 5.0
2014-Nov-19 01:00N 46°48' W 071°12'0 0.0 230 / 20999.8 -3.2-7.2
2014-Nov-19 00:00N 46°48' W 071°12'0 0.0 230 / 16999.3 -3.1-7.1
2014-Nov-18 23:00N 46°48' W 071°12'0 0.0 240 / 17999.0 -3.3-7.9
2014-Nov-18 22:00N 46°48' W 071°12'0 0.0 230 / 16998.3 -3.5-7.1
2014-Nov-18 21:00N 46°48' W 071°12'0 0.0 240 / 20997.7 -3.5-6.9
2014-Nov-18 20:00N 46°48' W 071°12'0 0.0 240 / 22997.1 -3.0-7.1
2014-Nov-18 19:00N 46°48' W 071°12'0 0.0 240 / 19996.4 -2.4-6.4
2014-Nov-18 18:00N 46°48' W 071°12'0 0.0 230 / 20996.2 -2.5-5.9
2014-Nov-18 17:00N 46°48' W 071°12'0 0.0 230 / 21995.5 -2.3-5.7
2014-Nov-18 16:00N 46°48' W 071°12'0 0.0 230 / 21995.1 -1.9-4.3
2014-Nov-18 15:00N 46°48' W 071°12'0 0.0 240 / 21995.0 -1.8-3.4
2014-Nov-18 14:00N 46°48' W 071°12'0 0.0 230 / 20994.2 -1.5-2.2
2014-Nov-18 13:00N 46°48' W 071°12'0 0.0 230 / 23993.9 -0.6-2.8
2014-Nov-18 12:00N 46°48' W 071°12'0 0.0 230 / 21993.0 0.5-0.5
2014-Nov-18 11:00N 46°48' W 071°12'0 0.0 230 / 16992.3 1.9 1.8
2014-Nov-18 10:00N 46°48' W 071°12'0 0.0 230 / 11992.6 1.8 1.8
2014-Nov-18 09:00N 46°48' W 071°12'0 0.0 230 / 14992.8 1.9 1.8
2014-Nov-18 08:00N 46°48' W 071°12'0 0.0 230 / 12993.5 1.5 1.5
2014-Nov-18 07:00N 46°48' W 071°12'0 0.0 200 / 3994.2 0.9 0.9
2014-Nov-18 06:00N 46°48' W 071°12'0 0.0 190 / 2994.3 0.7 0.7
2014-Nov-18 05:00N 46°48' W 071°12'0 0.0 040 / 8994.4 0.3 0.3
2014-Nov-18 04:00N 46°48' W 071°12'0 0.0 050 / 11995.2 0.6 0.5
2014-Nov-18 03:00N 46°48' W 071°12'0 0.0 060 / 13996.0 0.4 0.4
2014-Nov-18 02:00N 46°48' W 071°12'0 0.0 050 / 14997.4 0.4 0.4
2014-Nov-18 01:00N 46°48' W 071°12'0 0.0 050 / 17998.1 0.3 0.3
2014-Nov-18 00:00N 46°48' W 071°12'0 0.0 050 / 17999.0 0.3 0.3
2014-Nov-17 23:00N 46°48' W 071°12'0 0.0 050 / 171001.3 0.2 0.2 5.8
2014-Nov-17 22:00N 46°48' W 071°12'0 0.0 050 / 191002.2 0.3 0.3 5.8
2014-Nov-17 21:00N 46°48' W 071°12'0 0.0 050 / 211003.0 0.4 0.3 5.7
2014-Nov-17 20:00N 46°48' W 071°12'1010.2 080 / 171005.2 0.5 0.4 5.8
2014-Nov-17 19:00N 46°42' W 071°24'4 4.1 080 / 181006.3 0.6 0.6 5.7
2014-Nov-17 18:00N 46°42' W 071°30'1413.7 080 / 191007.9 0.4 0.4 5.8
2014-Nov-17 17:00N 46°36' W 071°48'1212.4 080 / 141009.8 0.4 0.3 5.8
2014-Nov-17 16:00N 46°36' W 072°06'716.1 100 / 121010.7 0.6 0.5 6.2
2014-Nov-17 15:33N 46°31' W 072°13'1018.2
2014-Nov-17 15:00N 46°24' W 072°24'4 9.0 110 / 101011.7 0.5 0.4 6.1
2014-Nov-17 14:33N 46°22' W 072°29'4 7.5
2014-Nov-17 14:00N 46°18' W 072°30'3 6.1 100 / 41013.0 -0.2-0.3
2014-Nov-17 13:32N 46°20' W 072°33'3 5.0
2014-Nov-17 13:00N 46°18' W 072°30'3 6.1 110 / 41013.8 -0.4-0.5
2014-Nov-17 12:32N 46°20' W 072°33'3 5.0
2014-Nov-17 12:00N 46°18' W 072°30'3 6.1 130 / 61014.6 -0.3-0.5
2014-Nov-17 11:32N 46°20' W 072°33'3 5.0
2014-Nov-17 11:00N 46°18' W 072°30'3 6.1 160 / 71015.5 0.3 0.2
2014-Nov-17 10:32N 46°20' W 072°33'3 5.0
2014-Nov-17 10:00N 46°18' W 072°30'3 6.1 160 / 71015.7 0.2 0.1
2014-Nov-17 09:32N 46°20' W 072°33'0 0.0
2014-Nov-17 08:32N 46°20' W 072°33'3 5.0
2014-Nov-17 08:00N 46°18' W 072°30'3 6.1 190 / 51016.2 0.4 0.3
2014-Nov-17 07:32N 46°20' W 072°33'3 5.0
2014-Nov-17 07:00N 46°18' W 072°30'3 6.1 190 / 91016.4 0.6 0.5
2014-Nov-17 06:32N 46°20' W 072°33'3 5.0
2014-Nov-17 06:00N 46°18' W 072°30'3 6.1 200 / 61016.6 0.4 0.3
2014-Nov-17 05:32N 46°20' W 072°33'3 5.0
2014-Nov-17 05:00N 46°18' W 072°30'3 6.1 200 / 81017.0 0.6 0.5
2014-Nov-17 04:32N 46°20' W 072°33'3 5.0
2014-Nov-17 04:00N 46°18' W 072°30'3 6.1 220 / 71017.1 0.7 0.6
2014-Nov-17 03:32N 46°20' W 072°33'3 5.0
2014-Nov-17 03:00N 46°18' W 072°30'3 6.1 200 / 71017.4 0.7 0.6
2014-Nov-17 02:32N 46°20' W 072°33'3 5.0
2014-Nov-17 02:00N 46°18' W 072°30'3 6.1 220 / 51017.9 0.8 0.7
2014-Nov-17 01:32N 46°20' W 072°33'3 5.0
2014-Nov-17 01:00N 46°18' W 072°30'3 6.1 220 / 51018.0 0.8 0.7
2014-Nov-17 00:32N 46°20' W 072°33'3 5.0
2014-Nov-17 00:00N 46°18' W 072°30'3 5.0 230 / 41018.1 1.2 1.0
2014-Nov-16 23:26N 46°20' W 072°33'3 6.2
2014-Nov-16 23:00N 46°18' W 072°30'3 6.1 240 / 51018.1 1.2 1.0
2014-Nov-16 22:32N 46°20' W 072°33'3 5.0
2014-Nov-16 22:00N 46°18' W 072°30'3 5.0 180 / 41018.0 0.6 0.5
2014-Nov-16 21:26N 46°20' W 072°33'3 6.1
2014-Nov-16 21:00N 46°18' W 072°30'3 6.1 210 / 31018.8 0.8 0.7
2014-Nov-16 20:32N 46°20' W 072°33'3 5.0
2014-Nov-16 20:00N 46°18' W 072°30'3 6.1 220 / 41018.6 0.8 0.7
2014-Nov-16 19:32N 46°20' W 072°33'3 5.0
2014-Nov-16 19:00N 46°18' W 072°30'3 5.0 210 / 71019.4 0.7 0.6
2014-Nov-16 18:26N 46°20' W 072°33'3 6.1
2014-Nov-16 18:00N 46°18' W 072°30'3 6.1 230 / 81019.6 0.4 0.3
2014-Nov-16 17:32N 46°20' W 072°33'3 5.0
2014-Nov-16 17:00N 46°18' W 072°30'3 6.1 230 / 51020.7 -0.0-0.1
2014-Nov-16 16:32N 46°20' W 072°33'3 5.0
2014-Nov-16 16:00N 46°18' W 072°30'3 6.1 220 / 61021.7 -0.4-0.5
2014-Nov-16 15:32N 46°20' W 072°33'3 5.0
2014-Nov-16 15:00N 46°18' W 072°30'3 6.1 240 / 81021.9 -0.6-0.8
2014-Nov-16 14:32N 46°20' W 072°33'3 5.0
2014-Nov-16 14:00N 46°18' W 072°30'3 6.1 240 / 101022.1 0.2-2.9
2014-Nov-16 13:32N 46°20' W 072°33'3 5.0
2014-Nov-16 13:00N 46°18' W 072°30'3 6.1 240 / 101022.1 -0.1-2.1
2014-Nov-16 12:32N 46°20' W 072°33'3 5.0
2014-Nov-16 12:00N 46°18' W 072°30'3 6.1 240 / 101021.6 -0.0-2.8
2014-Nov-16 11:32N 46°20' W 072°33'3 5.0
2014-Nov-16 11:00N 46°18' W 072°30'3 6.1 230 / 91021.6 0.1-2.2
2014-Nov-16 10:32N 46°20' W 072°33'3 5.0
2014-Nov-16 10:00N 46°18' W 072°30'3 6.1 220 / 61021.9 -0.5-2.2
2014-Nov-16 09:32N 46°20' W 072°33'3 5.0
2014-Nov-16 09:00N 46°18' W 072°30'3 6.1 210 / 61021.8 -0.6-2.5
2014-Nov-16 08:32N 46°20' W 072°33'3 5.0
2014-Nov-16 08:00N 46°18' W 072°30'3 5.0 230 / 61021.7 -0.6-3.1
2014-Nov-16 07:26N 46°20' W 072°33'3 6.1
2014-Nov-16 07:00N 46°18' W 072°30'3 6.1 230 / 81021.8 -1.0-4.0
2014-Nov-16 06:32N 46°20' W 072°33'3 5.0
2014-Nov-16 06:00N 46°18' W 072°30'3 6.1 230 / 61021.8 -1.0-4.2
2014-Nov-16 05:32N 46°20' W 072°33'3 5.0
2014-Nov-16 05:00N 46°18' W 072°30'3 6.1 210 / 81022.1 -0.8-4.2
2014-Nov-16 04:32N 46°20' W 072°33'3 5.0
2014-Nov-16 04:00N 46°18' W 072°30'3 6.1 200 / 71022.4 -1.2-4.0
2014-Nov-16 03:32N 46°20' W 072°33'3 5.0
2014-Nov-16 03:00N 46°18' W 072°30'3 6.1 200 / 61022.6 -1.6-4.7
2014-Nov-16 02:32N 46°20' W 072°33'3 5.0
2014-Nov-16 02:00N 46°18' W 072°30'3 6.1 190 / 61022.9 -1.3-5.5
2014-Nov-16 01:32N 46°20' W 072°33'3 5.0
2014-Nov-16 01:00N 46°18' W 072°30'3 6.1 260 / 41022.9 -1.0-7.1
2014-Nov-16 00:32N 46°20' W 072°33'3 5.0
2014-Nov-16 00:00N 46°18' W 072°30'3 6.1 250 / 51023.0 -0.9-7.2
2014-Nov-15 23:32N 46°20' W 072°33'3 5.0
2014-Nov-15 23:00N 46°18' W 072°30'3 6.1 280 / 41022.6 -0.4-7.0
2014-Nov-15 22:32N 46°20' W 072°33'3 5.0
2014-Nov-15 22:00N 46°18' W 072°30'3 6.1 260 / 81021.5 0.6-6.5
2014-Nov-15 21:32N 46°20' W 072°33'3 5.0
2014-Nov-15 21:00N 46°18' W 072°30'3 6.1 250 / 101021.2 1.2-6.1
2014-Nov-15 20:32N 46°20' W 072°33'3 5.0
2014-Nov-15 20:00N 46°18' W 072°30'3 6.1 240 / 121021.0 1.0-7.1
2014-Nov-15 19:32N 46°20' W 072°33'3 5.0
2014-Nov-15 19:00N 46°18' W 072°30'3 6.1 240 / 111021.3 0.2-6.0
2014-Nov-15 18:32N 46°20' W 072°33'3 5.0
2014-Nov-15 18:00N 46°18' W 072°30'0 0.0 230 / 71021.5 -0.3-5.9
2014-Nov-15 17:00N 46°18' W 072°30'0 0.0 240 / 81021.8 -0.8-6.6
2014-Nov-15 16:00N 46°18' W 072°30'3 6.1 260 / 91022.3 -1.4-7.1
2014-Nov-15 15:32N 46°20' W 072°33'3 5.0
2014-Nov-15 15:00N 46°18' W 072°30'3 6.1 290 / 81022.4 -1.9-7.4
2014-Nov-15 14:32N 46°20' W 072°33'3 5.0
2014-Nov-15 14:00N 46°18' W 072°30'3 6.1 250 / 111021.9 -2.2-6.8
2014-Nov-15 13:32N 46°20' W 072°33'3 5.0
2014-Nov-15 13:00N 46°18' W 072°30'3 6.1 260 / 91021.8 -3.7-6.7
2014-Nov-15 12:32N 46°20' W 072°33'3 5.0
2014-Nov-15 12:00N 46°18' W 072°30'3 6.1 260 / 71021.3 -4.6-7.6
2014-Nov-15 11:32N 46°20' W 072°33'3 5.0
2014-Nov-15 11:00N 46°18' W 072°30'3 6.1 270 / 51021.0 -5.1-8.2
2014-Nov-15 10:32N 46°20' W 072°33'3 5.0
2014-Nov-15 10:00N 46°18' W 072°30'3 6.1 270 / 71020.5 -5.0-8.3
2014-Nov-15 09:32N 46°20' W 072°33'3 5.0
2014-Nov-15 09:00N 46°18' W 072°30'3 6.1 290 / 51019.9 -5.0-8.1
2014-Nov-15 08:32N 46°20' W 072°33'3 5.0
2014-Nov-15 08:00N 46°18' W 072°30'3 6.1 300 / 81019.5 -4.7-7.6
2014-Nov-15 07:32N 46°20' W 072°33'3 5.0
2014-Nov-15 07:00N 46°18' W 072°30'3 6.1 300 / 71018.9 -4.1-7.2
2014-Nov-15 06:32N 46°20' W 072°33'3 5.0
2014-Nov-15 06:00N 46°18' W 072°30'3 6.1 300 / 91018.4 -3.7-6.8
2014-Nov-15 05:32N 46°20' W 072°33'3 5.0
2014-Nov-15 05:00N 46°18' W 072°30'3 6.1 300 / 81018.3 -3.3-6.6
2014-Nov-15 04:32N 46°20' W 072°33'3 5.0
2014-Nov-15 04:00N 46°18' W 072°30'3 5.0 290 / 41018.0 -3.1-6.3
2014-Nov-15 03:26N 46°20' W 072°33'3 6.1
2014-Nov-15 03:00N 46°18' W 072°30'3 6.1 300 / 61017.5 -2.4-6.8
2014-Nov-15 02:32N 46°20' W 072°33'3 5.0
2014-Nov-15 02:00N 46°18' W 072°30'3 6.1 300 / 61016.9 -2.0-6.6
2014-Nov-15 01:32N 46°20' W 072°33'3 5.0
2014-Nov-15 01:00N 46°18' W 072°30'3 6.1 300 / 61016.4 -1.4-6.6
2014-Nov-15 00:32N 46°20' W 072°33'3 5.0
2014-Nov-15 00:00N 46°18' W 072°30'3 6.1 300 / 81015.6 -0.7-6.7
2014-Nov-14 23:32N 46°20' W 072°33'3 5.0
2014-Nov-14 23:00N 46°18' W 072°30'3 6.1 280 / 51015.0 -0.5-5.5
2014-Nov-14 22:32N 46°20' W 072°33'3 5.0
2014-Nov-14 22:00N 46°18' W 072°30'3 6.1 270 / 51014.3 0.1-5.2
2014-Nov-14 21:32N 46°20' W 072°33'3 5.0
2014-Nov-14 21:00N 46°18' W 072°30'3 6.1 300 / 71013.7 1.0-6.0
2014-Nov-14 20:32N 46°20' W 072°33'3 5.0
2014-Nov-14 20:00N 46°18' W 072°30'3 6.1 280 / 101013.0 1.4-6.8
2014-Nov-14 19:32N 46°20' W 072°33'3 5.0
2014-Nov-14 19:00N 46°18' W 072°30'   310 / 101012.8 1.2-6.8

Dump ship's entire track history